Location: Caltech
(34.1382°N, 118.1253°W)
Time: 20:53:35
(UTC-07:00)

Uosat F - Visible Passes

Search period start: 22 July 2014 00:00
Search period end: 01 August 2014 00:00
Orbit: 752 x 762 km, 98.7° (Epoch: 22 July)

Date Brightness Start Highest point End Pass type
(mag) Time Alt. Az. Time Alt. Az. Time Alt. Az.
22 Jul 11.3 05:02:55 10° NNE 05:07:57 74° ESE 05:12:56 10° S visible
23 Jul 12.9 04:24:27 10° NE 04:28:45 28° E 04:33:00 10° SSE visible
24 Jul 13.9 03:48:32 10° E 03:49:20 10° E 03:50:07 10° E visible
24 Jul 11.1 05:23:32 10° N 05:28:31 69° WNW 05:33:29 10° SSW visible
25 Jul 12.1 04:44:36 10° NNE 04:49:26 46° E 04:54:12 10° S visible
26 Jul 13.5 04:06:46 10° NE 04:10:08 18° E 04:13:28 10° SE visible
27 Jul 11.3 05:05:02 10° NNE 05:10:03 76° ESE 05:15:03 10° S visible
28 Jul 12.8 04:26:31 10° NE 04:30:52 29° E 04:35:10 10° SSE visible
29 Jul 13.9 03:50:14 10° ENE 03:51:28 11° E 03:52:41 10° ESE visible
29 Jul 11.1 05:25:39 10° N 05:30:38 66° WNW 05:35:34 10° SSW visible
30 Jul 12.0 04:46:42 10° NNE 04:51:33 47° E 04:56:20 10° S visible
31 Jul 13.5 04:08:48 10° NE 04:12:15 19° E 04:15:41 10° SE visible
